Location: Larrial
(48.2758°N, 4.5331°W)
Time: 03:34:28
(UTC+00:00)

Cosmos 1892 - Pass Details

Date: 09 April 2020
Orbit: 503 x 526 km, 82.5° (Epoch: 06 June)

Event Time Altitude Azimuth Distance (km) Brightness Sun altitude
Rises 21:31:23 0° 345° (NNW) 2,674 7.3 -22.7°
Reaches altitude 10° 21:33:35 10° 341° (NNW) 1,781 6.3 -22.9°
Maximum altitude 21:37:22 50° 266° (W) 677 3.4 -23.4°
Enters shadow 21:37:48 47° 241° (WSW) 702 3.3 -23.4°
